This is the latest recevied weather packets stored in our database for station/object N9XRG. If no packets are shown the sender has not sent any weather packets the latest 10 day(s).
| Time | Temp. | Humidity | Pressure | Rain* | Wind** | Luminosity | Snow |
|---|---|---|---|---|---|---|---|
| 1777470214 | 12.22° C | 88% | 1011.5 hPa | 0 mm | - | 161 W/m² | - |
| 1777469910 | 12.22° C | 89% | 1011.6 hPa | 0 mm | - | 135 W/m² | - |
| 1777469606 | 12.22° C | 89% | 1011.7 hPa | 0 mm | - | 110 W/m² | - |
| 1777469306 | 12.22° C | 90% | 1011.6 hPa | 0 mm | - | 100 W/m² | - |
| 1777469001 | 12.22° C | 90% | 1011.9 hPa | 0 mm | - | 50 W/m² | - |
| 1777468697 | 12.22° C | 90% | 1011.9 hPa | 0 mm | - | 58 W/m² | - |
| 1777468394 | 12.22° C | 89% | 1012.2 hPa | 0 mm | - | 69 W/m² | - |
| 1777468090 | 12.22° C | 90% | 1012.1 hPa | 0 mm | - | 75 W/m² | - |
| 1777467786 | 12.22° C | 89% | 1011.8 hPa | 0 mm | - | 74 W/m² | - |
| 1777467481 | 12.22° C | 90% | 1012 hPa | 0 mm | - | 40 W/m² | - |
| 1777467177 | 12.22° C | 92% | 1011.8 hPa | 0 mm | - | 79 W/m² | - |
| 1777466874 | 12.22° C | 92% | 1011.9 hPa | 0 mm | - | 112 W/m² | - |
| 1777466572 | 12.22° C | 93% | 1011.7 hPa | 0 mm | - | 125 W/m² | - |
| 1777466268 | 11.67° C | 92% | 1011.8 hPa | 0 mm | - | 116 W/m² | - |
| 1777465964 | 11.67° C | 93% | 1011.7 hPa | 0 mm | - | 48 W/m² | - |
| 1777465661 | 11.67° C | 94% | 1011.7 hPa | 0 mm | - | 55 W/m² | - |
| 1777465357 | 11.67° C | 96% | 1011.7 hPa | 0 mm | - | 90 W/m² | - |
| 1777465055 | 11.67° C | 96% | 1011.6 hPa | 0 mm | - | 109 W/m² | - |
| 1777464751 | 11.67° C | 96% | 1011.4 hPa | 0 mm | - | 67 W/m² | - |
| 1777464447 | 11.67° C | 96% | 1011.2 hPa | 0 mm | - | 84 W/m² | - |
| 1777464143 | 11.11° C | 97% | 1011.3 hPa | 0 mm | - | 84 W/m² | - |
| 1777463842 | 11.11° C | 97% | 1011.4 hPa | 0 mm | - | 76 W/m² | - |
| 1777463539 | 11.11° C | 97% | 1011.3 hPa | 0 mm | - | 62 W/m² | - |
| 1777463234 | 11.11° C | 97% | 1011.4 hPa | 0 mm | - | 74 W/m² | - |
| 1777462930 | 11.11° C | 97% | 1011.3 hPa | 0 mm | - | 76 W/m² | - |
* Rain latest hour (hover to see other rain measurements)
** Current wind speed in m/s (hover to see current wind gust speed)